Hourly Weather Roundup
Issued by NWS Central Illinois

Home | Current Version | Previous Version | Graphics & Text | Print | Product List | Glossary On
Versions: 1 2 3 4 5 6 7 8 9 10 11 12 13 14 15 16 17 18 19 20 21 22 23 24 25 26 27 28 29 30 31 32 33 34 35 36 37 38 39 40 41 42 43 44 45 46 47 48 49 50
000
NZUS43 KILX 282010
HWRILX

AREA WEATHER ROUNDUP
NATIONAL WEATHER SERVICE, LINCOLN IL
300 PM CDT THU APR 28 2016


CITY           SKY/WX    TMP DP  RH WIND       PRES   REMARKS
BLOOMINGTON    PTSUNNY   63  56  78 N7        29.87R
CHAMPAIGN      PTSUNNY   69  51  52 W13       29.85R
DANVILLE       CLOUDY    65  54  66 W9        29.83R
DECATUR        PTSUNNY   68  52  56 W14G25    29.86R
EFFINGHAM      PTSUNNY   71  55  57 SW14G21   29.89R
FLORA          MOSUNNY   74  52  44 W16       29.88R
GALESBURG      CLOUDY    56  47  71 W9        29.90R
JACKSONVILLE   CLOUDY    64  51  62 W13       29.90R
LACON          CLOUDY    58  50  74 NW5       29.87R
LAWRENCEVILLE  PTSUNNY   73  52  47 W14       29.86R
LITCHFIELD     MOSUNNY   67  52  59 W14G20    29.90R
$$


CITY           SKY/WX    TMP DP  RH WIND       PRES   REMARKS
LINCOLN        PTSUNNY   67  53  59 W7        29.86R
MACOMB         CLOUDY    57  49  73 W15       29.92S
MATTOON        PTSUNNY   70  51  51 SW12      29.85R
MT CARMEL AP   NOT AVBL
OLNEY-NOBLE AP MOSUNNY   72  52  49 W9        29.87S
PARIS          PTSUNNY   70  55  58 W12       29.86R
PEORIA         CLOUDY    62  51  67 W9        29.87R
PONTIAC        CLOUDY    59  55  87 NE6       29.88R
RANTOUL        CLOUDY    66  56  71 NW6       29.86R
ROBINSON       PTSUNNY   72  54  53 SW15G21   29.87R
SPRINGFIELD    CLOUDY    66  52  60 W22G29    29.89R
TAYLORVILLE    CLOUDY    64  52  63 W13G20    29.89R
$$

...REGIONAL REPORTS...


CITY           SKY/WX    TMP DP  RH WIND       PRES   REMARKS
CHICAGO O`HARE CLOUDY    50  42  74 NE9       29.90R
KANKAKEE       CLOUDY    56  50  81 CALM      29.88F
MOLINE         CLOUDY    54  49  83 CALM      29.89R HAZE
MOUNT STERLING CLOUDY    57  47  67 W13G18    29.91R
MOUNT VERNON   SUNNY     73  52  46 W10G20    29.89S
PITTSFIELD     CLOUDY    62  50  64 W14       29.92R
QUINCY         CLOUDY    59  48  67 W13       29.91R
ROCKFORD       CLOUDY    52  42  69 E12       29.93R
$$


CITY           SKY/WX    TMP DP  RH WIND       PRES   REMARKS
BURLINGTON     CLOUDY    56  48  74 SW14      29.89S
CEDAR RAPIDS   CLOUDY    54  50  86 W7        29.87R
DES MOINES     CLOUDY    56  46  69 W8        29.89R
KIRKSVILLE     CLOUDY    57  47  69 SW9G17    29.93R
OTTUMWA        CLOUDY    55  46  71 W9        29.90R
ST LOUIS       MOSUNNY   72  48  42 W10       29.90R
$$


CITY           SKY/WX    TMP DP  RH WIND       PRES   REMARKS
TERRE HAUTE    NOT AVBL
EVANSVILLE     MOSUNNY   75  50  41 W14       29.87S
INDIANAPOLIS   PTSUNNY   73  59  61 W17G25    29.80S
LAFAYETTE      CLOUDY    61  54  77 NW7       29.85S
MADISON        CLOUDY    41  37  86 E13       29.96R WCI  34
MILWAUKEE      CLOUDY    40  37  89 NE15      29.98R FOG     WCI  32
$$






USA.gov is the U.S. government's official web portal to all federal, state and local government web resources and services.